STARLINK-34383, 64305

Orbit data source: Space-Track

STARLINK-34383, 64305 is a payload satellite owned by SpaceX/Seattle (US) in LEO that was launched on Sun, 08 Jun 2025 UTC via an FALCON 9 launch vehicle from the Air Force Western Test Range (AFWTR). Payload-class satellites include a variety of spacecraft equipped with specific instruments for various scientific and technological missions. These include communications satellites like Starlink; space stations such as the ISS; scientific satellites like the Hubble; Earth observation satellites from companies like Planet Labs, Umbra, and HawkEye 360; GPS; miniature CubeSats for education and research; and military/defense satellites.

Loading next visibility...
Identifier
64305, 2025-123Q
Orbit
LEO
Country
Flag of USUS
Related business
Manufacturer
SpaceX/Seattle
Mission
Operational Commercial Communications
Bus & Motor
STARLINK V2MO, Unknown motor
Mass
575 kg wet, ~530 kg dry
Launch date (UTC)
2025-06-08 (10 months ago)
Launch vehicle
FALCON 9
Launch site
Air Force Western Test Range (AFWTR)
Object type
Payload
Rocket body
Debris
Shape & HBR
Box + 2 Pan, 17.7 m
Radar Cross Section
36.964 m², Large (>1 m²)

Expand to show TLE details & history
Last TLE update: 17 hours ago

TLE from 17 hours ago
0 STARLINK-34383
1 64305U 25123Q   26093.52683048  .00006332  00000-0  53788-3 0  9995
2 64305  70.0002 132.0401 0004496 273.4401  86.6244 14.98332830 45330
Epoch: 2026-04-03T12:38Z
TLE epoch observation values (Epoch: 2026-04-03T12:38:38.153Z)
Latitude
-0°
Longitude
110.52144°
Altitude
574.288 km
Speed
7.574 km/s
True Right ascension
08h 48m 09s
True Declination
0° 00' 00"
Sunlit
Object was in full shadow at epoch
Visualization orbit readout
Latitude
Unknown
Longitude
Unknown
Altitude
Unknown
Speed
Unknown
Apparent Right ascension
Unknown
Apparent Declination
Unknown
Sunlit
N/A
Visualization observer readout
Local Sidereal Time
11:24:55
Azimuth
Unknown
Elevation
Unknown
Doppler factor
Unknown
Orbital elements
Apogee altitude
573.119 km
Perigee altitude
566.871 km
Semi-major axis
6,948.132 km
Eccentricity
0.00045
Inclination
70.0002°
RAAN
132.0401°
Arg. of periapsis
273.4401°
True anomaly
86.67583°
Mean anomaly
86.6244°
Eccentric anomaly
86.65012°
Mean motion
3.74749 °/min
Orbital period
96.06 mins
BSTAR
0.00053788
Loading maneuver chart data...
Computing Atmospheric mass density...
Loading historical data...
Loading historical data...
Loading historical data...
Loading historical data...
Loading historical data...
Loading historical data...
Loading historical data...

Documentation

Showing up to 5 results
|